Weather History for Tucson, AZ

Change the Weather History Date:

Sunday, December 26, 2010

  Actual Average Record
Temperature  
Mean Temperature 55 °F 51 °F  
Max Temperature 68 °F 64 °F 82 °F (1933)
Min Temperature 42 °F 39 °F 16 °F (1895)
Degree Days  
Heating Degree Days 10 14  
Month to date heating degree days 151 338  
Since 1 July heating degree days 390 544  
Cooling Degree Days 0 0  
Month to date cooling degree days 1 0  
Year to date cooling degree days 3352 3146  
Growing Degree Days 4 (Base 50)    
Moisture  
Dew Point 31 °F    
Average Humidity 49    
Maximum Humidity 71    
Minimum Humidity 26    
Precipitation  
Precipitation 0.00 in 0.03 in 0.68 in (1994)
Month to date precipitation 0.24 0.78  
Year to date precipitation 10.91 11.44  
Snow  
Snow 0.00 in - - ()
Month to date snowfall 0.0  
Snow Depth 0.00 in    
Sea Level Pressure  
Sea Level Pressure 30.02 in    
Wind  
Wind Speed 8 mph (SSW)    
Max Wind Speed 25 mph    
Max Gust Speed 30 mph    
Visibility 10 miles    
Events      
T = Trace of Precipitation, MM = Missing Value Source: NWS Daily Summary

Daily Weather History Graph

Daily Weather History Graph

Search for Another Location

Airport:

Trip Planner

Search our weather history database for the weather conditions in past years. The results will help you decide how hot, cold, wet, or windy it might be!

Date:

Astronomy

Dec. 26, 2010 Rise Set
Actual Time 7:22 AM MST 5:26 PM MST
Civil Twilight 6:55 AM MST 5:53 PM MST
Nautical Twilight 6:25 AM MST 6:23 PM MST
Astronomical Twilight 5:55 AM MST 6:53 PM MST
Moon 11:35 PM MST (12/26) 11:05 AM MST (12/26)
Length of Visible Light 10h 57m
Length of Day
10h 03m
Waning Gibbous, 66% of the Moon is Illuminated
Dec 26
Waning Gibbous
Dec 27
Last Quarter
Jan 4
New
Jan 12
First Quarter
Jan 19
Full

Hourly Weather History & Observations

Time (MST) Temp. Windchill Dew Point Humidity Pressure Visibility Wind Dir Wind Speed Gust Speed Precip Events Conditions
12:53 AM 55.9 °F - 25.0 °F 30% 29.99 in 10.0 mi SE 17.3 mph - N/A   Clear
1:53 AM 55.0 °F - 25.0 °F 31% 29.99 in 10.0 mi SE 20.7 mph - N/A   Clear
2:53 AM 55.0 °F - 25.0 °F 31% 29.97 in 10.0 mi SE 17.3 mph - N/A   Clear
3:53 AM 54.0 °F - 25.0 °F 33% 29.96 in 10.0 mi SE 15.0 mph - N/A   Clear
4:53 AM 52.0 °F - 25.0 °F 35% 29.97 in 10.0 mi SSE 12.7 mph - N/A   Clear
5:53 AM 50.0 °F - 25.0 °F 38% 30.00 in 10.0 mi SE 12.7 mph - N/A   Clear
6:53 AM 43.0 °F 41.3 °F 27.0 °F 53% 30.04 in 10.0 mi SE 3.5 mph - N/A   Clear
7:53 AM 46.9 °F - 26.1 °F 44% 30.03 in 10.0 mi SSE 8.1 mph - N/A   Clear
8:53 AM 52.0 °F - 27.0 °F 38% 30.04 in 10.0 mi SSE 3.5 mph - N/A   Clear
9:53 AM 57.0 °F - 26.1 °F 30% 30.06 in 10.0 mi SSE 8.1 mph - N/A   Clear
10:53 AM 59.0 °F - 26.1 °F 28% 30.05 in 10.0 mi Variable 3.5 mph - N/A   Clear
11:53 AM 64.0 °F - 28.0 °F 26% 30.02 in 10.0 mi Calm Calm - N/A   Clear
12:53 PM 64.9 °F - 32.0 °F 29% 29.99 in 10.0 mi NW 5.8 mph - N/A   Clear
1:53 PM 66.0 °F - 33.1 °F 29% 29.98 in 10.0 mi WNW 9.2 mph - N/A   Clear
2:53 PM 64.9 °F - 33.1 °F 31% 29.99 in 10.0 mi NW 8.1 mph - N/A   Mostly Cloudy
3:53 PM 64.0 °F - 33.1 °F 31% 29.99 in 10.0 mi NW 10.4 mph - N/A   Scattered Clouds
4:53 PM 62.1 °F - 34.0 °F 35% 30.00 in 10.0 mi NW 5.8 mph - N/A   Clear
5:53 PM 59.0 °F - 35.1 °F 41% 30.02 in 10.0 mi NW 6.9 mph - N/A   Clear
6:53 PM 57.0 °F - 37.0 °F 47% 30.05 in 10.0 mi NNW 6.9 mph - N/A   Clear
7:53 PM 53.1 °F - 37.9 °F 57% 30.06 in 10.0 mi West 4.6 mph - N/A   Clear
8:53 PM 50.0 °F - 39.9 °F 68% 30.06 in 10.0 mi West 5.8 mph - N/A   Clear
9:53 PM 48.9 °F - 39.9 °F 71% 30.07 in 10.0 mi West 5.8 mph - N/A   Clear
10:53 PM 48.9 °F - 39.9 °F 71% 30.06 in 10.0 mi Calm Calm - N/A   Clear
11:53 PM 46.4 °F 45.2 °F 37.4 °F 71% 30.11 in 10.0 mi South 3.5 mph - N/A   Clear